GFSNW_sfc_rhum_000.txt.gz
RH
65 75 87 85 86 86 93 96 99 94 91 99 98 97 76 69 81 79 79 83 92 91 77 90 87 83 61 59 61 90 76 94 97 81 69 74 66 68 64 71 71 75 98 75
66 75 84 79 87 89 98 97 98 95 91 98 98 84 73 70 80 80 77 90 82 79 70 78 72 64 48 54 64 76 78 98 98 97 90 87 95 64 62 56 70 99 97 74
65 72 76 81 86 91 98 98 99 99 98 90 82 82 82 82 74 70 71 83 79 86 79 66 68 65 56 49 53 67 72 94 100 92 100 86 90 81 69 82 79 74 78 76
61 73 77 84 86 91 99 98 95 85 98 98 85 80 80 82 83 78 80 89 90 87 90 77 77 61 50 60 74 80 83 100 100 93 93 98 87 80 78 94 74 77 60 68
58 72 78 81 85 88 100 98 96 86 84 78 91 86 89 83 80 84 92 94 77 82 87 64 64 58 64 63 77 88 91 98 100 97 84 86 92 84 81 82 87 87 85 89
60 71 76 81 86 91 97 99 94 80 85 83 92 89 83 86 81 81 73 82 83 82 82 64 70 67 60 59 76 83 91 99 99 100 88 83 94 79 83 92 88 87 97 65
62 70 76 79 86 91 99 98 97 95 92 88 84 79 81 86 83 81 84 78 85 69 71 66 71 71 81 65 59 59 81 90 90 99 94 84 58 58 72 83 78 81 49 52
62 67 72 79 84 86 98 98 97 96 94 78 78 79 82 81 90 92 82 81 72 66 74 88 90 94 90 84 68 74 67 76 93 94 91 70 53 49 63 64 64 54 52 66
59 68 72 80 88 90 96 99 97 96 95 92 72 78 77 90 92 94 91 88 80 83 88 95 99 96 87 90 92 78 70 74 84 94 88 79 58 54 50 52 67 51 58 62
61 66 71 76 86 88 96 98 94 96 96 81 83 83 84 87 92 94 95 94 96 88 94 97 99 93 85 95 90 93 88 88 92 92 96 81 62 56 54 66 60 58 56 55
61 63 70 74 80 85 95 98 93 92 93 84 70 71 92 97 92 94 93 98 97 99 98 96 97 79 94 93 88 89 89 91 88 85 96 93 64 55 55 52 71 72 71 75
62 63 70 73 76 85 90 99 95 94 95 93 84 75 71 76 79 93 97 97 94 88 93 93 95 88 97 73 97 81 89 80 81 85 81 67 74 71 75 61 67 73 75 76
63 63 69 72 73 84 91 98 99 97 98 92 90 87 83 88 88 88 96 97 94 95 85 91 92 80 85 96 88 90 83 75 73 74 73 75 75 73 70 64 68 69 70 71
63 65 70 72 73 82 88 98 97 97 94 97 90 85 92 91 95 95 94 98 95 96 99 92 91 90 84 87 72 87 82 76 73 72 75 75 74 74 69 70 67 68 69 66
64 67 69 72 74 79 92 96 95 94 95 97 95 87 92 96 96 96 95 97 97 98 99 99 92 95 89 92 88 85 68 79 76 78 60 60 62 66 66 65 70 69 70 75
64 67 69 74 74 78 97 100 98 92 90 95 100 90 92 98 97 96 96 97 97 99 99 96 94 88 91 95 93 69 63 59 61 58 67 70 71 69 70 71 71 69 70 70
66 69 74 76 74 89 98 98 99 89 87 95 100 99 88 92 95 97 98 98 99 98 98 98 91 86 86 91 94 68 70 59 68 65 62 70 70 72 69 68 69 69 70 72
69 72 77 74 74 84 98 97 96 89 93 97 100 100 98 84 98 99 98 96 98 96 96 93 93 85 92 95 82 76 74 71 70 75 72 68 70 68 70 66 63 68 73 74
74 77 79 90 97 99 98 94 91 94 92 98 100 100 100 92 97 95 97 98 99 95 97 97 94 94 93 78 75 72 70 67 81 81 72 67 66 67 64 63 63 68 73 73
76 92 97 97 96 97 95 99 100 100 100 97 98 96 99 94 96 98 95 98 99 100 96 92 98 98 83 79 78 68 71 79 75 79 89 84 81 75 70 64 61 65 72 79
96 99 99 97 88 99 99 100 99 99 100 99 96 92 98 93 94 97 94 99 100 98 95 94 96 96 87 82 84 75 77 73 72 70 69 67 61 61 63 69 70 71 73 77
92 96 95 98 99 100 100 100 100 100 98 99 98 98 94 97 88 94 94 97 98 93 93 98 97 88 85 82 87 83 80 78 76 70 67 60 55 58 64 71 77 82 90 91
95 99 100 99 99 100 99 99 100 100 100 100 98 98 88 88 91 96 95 96 97 92 97 97 92 94 87 89 93 91 84 76 68 62 60 64 73 70 68 80 86 89 93 93
100 99 98 99 99 99 94 94 97 94 100 100 93 95 93 86 94 94 94 95 92 98 100 90 93 93 88 92 90 79 80 70 66 67 68 73 76 85 85 85 86 85 90 92
99 100 98 99 99 100 99 100 98 100 96 90 93 96 82 97 94 87 93 97 99 96 87 89 94 96 93 89 79 73 70 70 72 69 68 74 76 77 90 90 88 82 80 76
99 99 99 99 100 99 99 99 100 100 89 94 94 93 91 93 91 96 94 95 95 84 94 96 95 94 84 79 75 72 67 60 58 59 63 67 72 77 82 78 74 71 66 63
99 99 100 100 100 99 98 89 91 89 88 94 94 87 81 95 99 98 92 88 87 95 100 99 98 93 81 78 75 69 62 59 62 62 64 69 69 67 67 72 71 63 64 65

GFSNW_sfc_rhum_006.txt.gz
RH
61 56 57 65 70 81 89 98 98 97 89 100 99 94 72 68 94 88 78 76 67 72 82 95 89 86 75 70 77 86 79 97 96 84 74 64 65 73 77 87 88 86 91 59
62 55 59 65 73 78 98 97 98 97 87 100 99 85 78 79 96 94 87 85 73 69 78 87 89 81 61 71 80 86 80 98 98 95 89 86 93 77 66 67 79 84 86 52
63 56 60 67 78 80 97 98 100 99 98 93 78 80 82 83 77 84 77 77 77 81 83 80 85 83 64 68 71 69 71 98 98 86 94 96 98 90 79 74 95 76 70 54
62 57 61 71 81 83 98 97 98 91 99 97 74 72 77 81 85 81 76 84 79 91 97 82 89 76 69 68 66 77 92 99 100 93 79 99 98 96 88 94 79 78 56 52
59 56 64 71 85 87 97 99 96 90 87 76 76 83 87 85 76 81 83 86 76 86 92 78 74 79 75 82 73 82 93 98 100 99 96 97 99 95 96 95 75 67 59 58
57 59 67 73 82 89 97 96 94 80 82 81 84 84 86 78 75 70 77 80 86 89 80 73 71 64 73 74 78 96 98 100 100 95 95 96 99 90 80 78 80 63 74 59
58 59 65 70 78 86 98 96 99 96 93 78 77 74 73 86 80 82 86 78 84 71 70 69 76 84 82 81 80 80 97 100 100 98 100 98 81 78 70 73 71 65 54 70
60 61 61 66 73 77 97 98 99 98 92 74 74 81 83 75 84 87 84 76 78 75 78 92 93 88 92 89 87 89 81 98 99 99 99 83 83 84 79 81 78 62 62 58
63 60 64 65 72 75 92 96 98 99 93 85 64 78 85 95 95 93 88 88 89 86 93 94 94 93 83 91 90 91 93 82 97 93 98 81 64 89 83 76 92 69 68 68
64 62 65 64 71 75 90 97 98 99 95 87 74 79 86 86 88 90 93 92 94 89 96 96 97 96 82 95 95 93 94 96 96 89 86 84 70 70 78 90 70 68 69 70
64 63 64 63 68 76 89 95 97 100 97 88 75 75 90 91 88 89 93 93 98 99 99 99 97 98 92 93 84 91 91 91 92 92 96 81 73 69 81 65 71 73 76 78
65 63 64 62 64 73 82 96 88 92 99 92 91 81 80 73 70 85 93 91 93 92 98 96 93 95 95 92 92 89 93 79 84 83 77 67 75 72 72 69 71 82 80 84
65 64 64 62 64 69 80 96 95 97 98 93 95 90 84 80 76 74 91 95 88 97 98 97 94 91 94 96 92 91 86 83 87 80 76 79 75 78 79 78 84 86 82 76
66 66 62 63 65 69 74 94 92 97 98 98 91 88 92 93 91 87 84 92 96 98 99 99 95 89 88 92 87 90 85 84 81 82 76 71 73 78 82 85 82 78 77 73
61 61 62 64 66 70 79 89 91 88 99 98 97 90 98 97 96 95 93 95 97 98 99 98 98 92 92 96 92 92 82 80 80 84 72 67 71 78 78 80 81 73 72 73
61 60 60 62 66 69 95 98 99 95 99 99 100 93 98 96 94 95 97 97 98 98 98 98 97 87 90 96 96 75 76 75 75 73 77 81 82 77 81 80 78 72 71 66
60 63 62 63 65 87 94 92 97 86 94 99 100 99 95 92 89 96 98 98 98 99 96 99 98 96 93 96 96 74 79 75 79 80 73 76 79 76 78 76 79 78 78 72
59 63 66 68 71 74 92 86 83 85 98 99 100 100 98 94 98 99 98 98 99 99 98 98 97 93 93 98 86 84 83 81 80 84 82 73 81 82 82 77 71 74 77 76
72 68 76 89 92 97 96 87 91 90 98 99 99 100 99 96 98 97 99 98 99 98 98 98 98 96 98 86 83 84 81 76 82 86 81 79 79 83 79 73 70 72 78 80
69 88 92 98 95 82 89 98 99 100 100 99 99 94 94 95 98 99 98 97 99 100 97 95 99 98 80 79 73 72 77 79 78 82 92 90 89 84 78 72 67 68 72 77
94 98 99 97 86 97 99 100 100 100 100 98 98 95 92 96 98 97 97 99 100 100 93 97 98 95 90 85 86 82 76 73 73 72 71 70 68 73 72 72 72 72 71 76
90 90 89 98 98 100 100 100 100 96 94 99 98 98 94 97 93 95 96 98 98 90 95 99 97 91 88 87 90 88 81 75 72 73 72 70 66 63 65 70 71 75 74 70
93 96 100 99 99 99 99 99 99 100 100 100 99 99 95 95 93 96 94 95 95 93 99 97 94 94 87 87 92 91 87 77 74 74 70 67 74 72 68 78 78 73 71 71
96 99 95 98 98 99 99 99 99 96 100 100 97 98 97 89 95 94 97 94 92 99 99 91 93 91 85 92 93 91 87 78 75 75 74 77 78 85 83 82 78 73 77 79
98 98 97 98 100 100 100 100 100 98 100 98 95 97 85 97 95 92 95 97 98 97 91 92 94 94 95 95 92 90 84 82 85 83 80 84 83 85 92 88 83 79 79 77
96 98 98 95 99 98 99 100 100 98 99 98 98 94 94 91 94 97 98 98 97 86 94 95 96 91 92 92 90 87 82 79 76 76 75 77 80 83 89 85 83 77 72 70
91 98 93 94 98 98 98 98 95 86 99 100 98 92 84 94 99 98 92 89 88 94 97 98 99 98 93 91 87 83 78 77 76 75 76 78 77 74 75 83 76 68 66 63

GFSNW_sfc_rhum_012.txt.gz
RH
66 64 58 65 70 78 88 97 100 93 88 99 99 99 69 70 68 68 63 53 54 56 60 68 63 62 52 46 60 74 57 69 88 71 44 45 43 52 60 92 80 87 73 54
64 62 61 67 72 82 99 98 97 94 91 99 99 89 72 76 74 73 65 65 55 52 61 71 57 60 49 54 57 58 60 91 92 80 68 56 71 55 54 79 83 90 83 46
65 62 62 68 73 85 94 98 100 97 92 79 75 70 72 80 71 74 64 66 59 59 60 57 66 65 58 51 52 62 60 66 90 69 76 66 100 76 75 96 93 68 67 54
62 63 64 72 77 84 97 98 96 86 100 87 59 59 67 75 75 69 63 67 60 61 68 68 67 62 61 60 64 61 65 100 95 75 66 79 90 85 92 100 78 79 54 45
61 64 66 74 76 82 95 97 98 76 83 67 57 73 67 68 75 66 71 68 62 62 65 63 67 64 64 60 60 64 71 92 98 98 79 78 98 87 93 96 92 68 58 59
62 65 69 72 74 80 98 96 87 90 83 74 62 67 62 63 63 68 64 62 67 76 69 58 58 56 60 62 64 70 90 100 100 91 62 72 96 94 94 94 90 74 80 59
63 64 64 67 70 75 96 96 98 96 85 71 60 60 62 65 60 74 71 65 71 67 60 58 61 61 63 72 76 59 90 100 100 98 91 97 83 78 81 82 78 70 61 53
64 65 64 66 64 68 93 96 98 98 82 62 61 60 61 68 69 68 70 68 62 60 63 76 75 77 80 72 73 72 68 90 100 99 97 68 67 74 84 76 63 52 60 54
64 65 64 66 64 66 87 97 97 99 94 72 53 59 60 66 70 76 72 76 72 72 82 79 93 75 65 68 73 78 78 82 98 99 98 90 64 53 60 58 64 51 56 54
65 65 65 67 63 65 82 96 91 98 99 69 55 67 70 68 70 77 75 77 82 85 84 86 95 82 67 66 68 83 89 95 96 96 93 64 53 53 68 63 55 53 58 51
61 63 63 61 62 63 78 91 90 98 98 84 66 61 72 76 68 72 73 81 86 94 96 95 86 84 63 71 61 65 62 77 85 77 76 80 51 58 57 52 52 54 61 71
59 59 59 59 60 62 67 93 83 86 99 91 80 70 64 58 56 70 82 75 80 82 94 94 94 82 72 66 62 62 72 57 54 58 52 46 49 51 47 54 56 56 60 65
60 59 58 58 58 60 65 90 92 90 98 89 82 71 70 67 68 60 74 91 74 88 89 95 94 96 89 72 67 64 61 59 64 64 49 53 50 49 52 59 60 61 63 60
61 60 59 58 59 60 61 86 88 94 97 98 79 76 76 82 76 69 67 73 80 90 96 95 91 94 68 68 68 66 57 66 63 61 52 49 50 51 56 63 61 61 58 56
62 63 62 59 59 62 67 74 86 86 95 97 86 81 87 84 79 79 77 77 82 90 95 98 92 81 89 70 73 68 58 56 54 46 51 49 49 56 60 61 62 59 59 59
64 64 63 62 63 63 77 92 97 86 92 99 98 87 90 85 82 86 89 88 90 88 95 93 88 75 84 88 74 52 48 53 50 47 51 54 58 58 58 61 63 57 56 55
63 64 63 64 65 76 86 86 95 84 92 98 99 94 92 91 88 91 89 89 92 93 95 96 90 83 94 96 80 52 52 51 52 55 54 59 60 55 59 60 61 59 52 50
64 65 65 68 72 70 85 78 81 93 98 97 100 96 88 89 95 90 84 93 98 98 96 96 99 95 98 98 72 59 56 59 58 56 58 60 59 61 64 61 58 58 57 53
66 68 72 88 88 88 91 80 87 97 99 99 99 100 96 94 93 87 98 96 99 92 99 98 98 90 98 77 66 62 60 61 57 68 65 65 63 65 66 63 60 59 58 54
67 80 84 97 92 78 88 94 96 100 99 100 97 80 91 84 90 97 92 95 98 100 93 96 99 98 73 67 65 61 58 62 69 75 94 99 98 89 68 65 56 54 55 53
86 87 94 91 82 97 93 100 100 99 100 97 88 81 81 84 90 90 88 96 100 100 90 94 97 84 70 66 65 67 63 59 60 56 58 60 59 62 62 60 57 57 54 54
86 92 91 93 98 100 100 100 100 97 98 98 96 86 80 89 87 90 94 99 98 100 80 95 96 77 75 66 68 74 65 61 61 57 59 58 60 57 57 60 59 57 58 56
85 88 94 95 99 97 96 97 100 100 100 100 99 99 87 88 86 91 93 100 96 80 96 90 82 78 68 64 74 76 68 63 62 67 66 63 66 66 60 63 61 58 56 54
88 92 97 95 96 95 96 99 100 100 100 100 98 98 94 86 98 88 100 84 86 97 98 93 86 74 65 72 79 78 71 66 67 69 69 75 73 72 69 67 64 57 58 56
91 93 98 96 93 100 100 100 100 100 99 100 98 99 82 98 97 84 95 96 96 86 87 86 84 77 76 79 80 78 71 68 73 74 74 75 74 65 70 70 63 55 55 52
96 93 96 86 92 93 91 96 98 99 98 100 99 100 99 99 94 97 100 97 93 87 99 86 72 74 76 79 78 75 70 66 68 68 68 67 66 65 66 59 55 54 53 52
90 94 92 92 94 95 91 72 80 80 98 100 100 100 100 93 96 96 90 92 95 95 91 83 91 90 80 77 76 75 72 69 69 71 67 68 66 61 60 65 60 56 52 50

GFSNW_sfc_rhum_018.txt.gz
RH
61 65 64 67 75 84 81 87 99 84 76 97 97 98 97 72 64 60 50 45 43 51 52 55 54 52 47 40 46 58 48 67 94 81 52 50 55 65 64 88 84 83 90 70
65 65 66 69 74 78 94 96 94 87 96 96 93 93 83 59 69 62 54 50 45 41 48 57 49 49 43 49 51 54 52 85 96 91 68 52 62 55 55 61 73 92 94 66
66 69 70 75 74 75 86 96 98 93 94 84 81 96 77 90 70 56 48 48 45 46 49 48 56 58 56 46 51 64 55 67 89 94 84 78 98 80 65 71 98 82 77 66
64 66 72 73 75 78 88 90 88 73 94 74 74 76 79 68 59 56 50 53 47 47 55 54 56 54 58 52 63 56 62 99 88 77 65 68 74 75 72 95 94 98 80 79
63 65 72 74 74 77 83 94 98 87 63 56 67 68 69 66 59 58 55 55 46 49 53 58 53 52 54 60 58 63 65 98 98 90 76 76 84 72 71 75 94 96 95 94
64 66 73 72 72 75 96 93 85 94 64 55 57 56 56 60 61 64 54 52 57 58 64 59 57 55 52 56 62 67 88 100 99 92 67 74 89 78 85 84 78 87 98 85
61 65 65 64 66 74 96 96 97 97 70 56 50 49 52 56 62 68 62 54 56 71 58 58 59 62 56 56 64 62 91 100 100 98 92 95 78 69 69 80 77 71 60 75
61 60 61 61 63 65 91 96 98 98 97 54 51 50 52 56 65 65 66 64 65 60 65 77 69 78 71 68 62 70 74 93 100 100 97 69 69 72 70 88 82 62 61 62
62 61 60 59 61 62 78 96 94 98 100 67 54 52 56 72 68 73 68 69 70 72 80 83 82 77 84 85 89 76 78 84 98 98 98 92 63 57 64 66 95 59 69 72
62 62 60 59 59 60 71 92 84 98 99 70 77 57 60 58 62 71 72 80 86 80 86 92 82 86 73 77 81 93 95 96 97 97 98 80 53 53 57 94 74 64 61 83
63 62 61 59 58 58 69 83 83 92 98 88 70 66 66 61 66 68 78 86 83 87 94 86 84 85 71 79 64 72 76 86 91 91 98 94 55 59 77 68 64 61 64 79
63 64 61 60 58 57 60 80 75 80 98 89 75 73 72 68 68 72 74 80 75 85 92 93 91 91 92 80 84 62 71 62 67 71 72 51 55 57 60 60 65 65 69 69
63 62 62 58 56 58 57 80 83 91 97 94 95 87 65 61 64 65 78 87 73 79 87 95 94 96 92 95 82 80 56 55 74 66 57 59 58 56 59 63 68 65 68 66
63 61 62 56 57 61 57 80 81 88 95 99 90 70 79 75 74 71 72 77 85 92 92 96 91 96 86 89 83 80 70 67 70 70 61 64 61 64 63 63 64 67 60 61
64 66 67 64 64 64 68 76 76 77 94 99 96 81 85 79 74 76 75 75 84 94 99 98 95 91 87 80 76 80 65 71 79 76 60 62 70 66 62 63 65 62 64 67
65 67 66 62 62 61 81 84 96 90 87 99 100 89 87 83 75 77 79 81 91 95 96 96 92 76 86 98 85 60 53 48 49 53 60 60 63 62 62 62 62 61 64 63
68 66 67 68 66 82 88 78 96 90 95 99 100 100 95 83 80 88 92 90 96 95 97 98 91 88 91 97 95 62 48 51 57 59 62 68 65 68 63 62 60 59 58 56
67 68 68 71 73 76 87 76 76 88 98 97 100 100 96 87 93 97 92 97 97 99 95 96 97 93 96 97 80 69 62 57 60 62 63 65 64 65 65 60 58 61 62 58
69 67 71 85 88 82 94 83 84 94 98 100 98 100 100 94 93 94 96 94 99 95 98 97 97 95 98 88 76 72 65 72 74 72 68 68 69 70 66 61 60 60 59 58
68 78 77 88 87 80 84 95 99 100 98 99 99 79 97 91 95 98 96 98 97 100 95 93 99 93 74 70 66 68 71 75 75 84 91 92 91 85 72 66 57 55 56 55
83 83 89 86 80 96 98 100 100 100 100 97 92 85 88 92 90 91 95 98 100 100 96 90 98 91 77 67 61 61 66 70 72 69 68 74 72 71 70 66 59 57 54 54
85 87 88 92 99 100 100 100 100 99 99 97 94 92 92 91 94 90 93 100 98 99 87 95 96 92 80 61 62 69 73 72 70 66 66 67 64 64 65 64 60 56 54 51
86 87 96 98 100 99 98 98 100 100 100 100 100 98 95 95 96 95 93 100 98 90 97 90 95 90 71 70 73 78 73 66 66 68 67 66 70 67 61 61 56 53 50 48
92 90 96 96 89 89 97 98 100 100 100 100 99 98 97 92 99 96 95 90 92 93 97 95 99 92 80 74 76 78 77 72 73 75 77 80 81 74 70 66 66 52 51 53
92 91 93 95 95 100 100 100 100 100 100 100 100 100 89 100 99 92 98 93 92 84 95 100 95 92 86 79 77 79 77 71 76 81 81 80 78 74 74 69 61 52 54 53
98 94 98 90 99 95 91 99 100 98 92 100 100 100 100 100 97 95 93 91 92 98 99 98 94 89 87 80 79 81 79 71 70 70 72 72 72 71 68 61 56 54 53 54
90 93 87 97 96 96 96 80 73 71 96 100 100 98 100 99 99 94 93 93 100 97 98 98 92 91 84 81 84 85 82 77 74 72 70 72 69 63 59 62 62 61 56 54

GFSNW_sfc_rhum_024.txt.gz
RH
64 68 68 68 74 81 87 95 96 84 91 96 98 100 98 89 80 73 68 58 61 60 75 78 80 81 64 54 57 69 62 80 96 86 69 64 71 77 78 93 82 96 95 82
62 65 67 68 74 79 97 97 98 91 90 96 98 92 89 81 82 75 66 63 56 59 74 75 66 61 52 54 55 64 59 82 96 86 76 75 80 73 72 73 80 94 95 73
62 63 65 70 72 78 94 96 94 92 96 94 89 93 92 80 69 66 58 58 52 58 58 59 68 71 59 57 56 64 61 83 83 89 81 84 89 80 75 80 99 90 82 63
63 64 64 67 72 77 94 98 96 95 99 89 89 95 88 78 76 66 58 58 55 59 64 67 77 71 66 63 63 63 65 90 94 85 78 83 83 81 79 90 76 95 68 69
63 64 64 65 71 75 91 95 92 82 97 87 86 84 85 83 77 74 69 69 68 60 75 72 75 70 72 69 78 68 73 97 95 95 84 88 94 82 78 74 68 68 69 74
63 63 63 63 66 76 96 95 88 96 87 88 83 77 80 75 76 68 70 67 78 83 80 76 69 60 60 64 72 82 83 95 99 97 80 90 96 88 80 75 72 77 91 74
63 63 63 62 62 70 99 96 98 96 94 93 78 72 66 73 79 77 75 72 78 77 68 67 69 72 61 62 62 69 90 98 99 98 90 94 75 73 68 71 76 80 83 76
62 62 62 61 61 61 93 96 97 98 91 88 84 81 68 80 79 81 81 78 78 73 73 86 89 91 70 70 67 77 75 90 95 96 91 77 73 80 84 90 78 73 83 73
66 64 61 60 61 60 90 93 95 97 99 94 87 83 69 84 88 85 88 85 82 79 89 91 89 91 81 92 94 77 79 83 98 99 99 96 63 78 74 76 95 75 71 74
61 65 59 61 61 59 82 92 89 98 99 89 92 96 88 78 84 88 89 90 88 85 96 97 95 91 80 96 92 97 99 98 98 99 97 87 63 62 76 91 72 72 75 75
58 59 64 61 61 57 74 86 90 92 98 87 70 75 84 92 84 89 86 87 90 96 97 96 92 93 90 90 86 90 86 94 98 99 99 93 58 78 83 63 77 76 75 83
63 61 65 58 61 60 65 83 82 89 94 88 85 66 64 66 73 96 84 81 89 90 96 96 95 95 90 93 93 82 90 76 83 85 79 56 56 64 68 70 72 76 80 80
69 66 59 57 62 65 66 87 89 94 95 84 87 70 51 48 52 55 98 88 79 90 88 95 94 92 87 91 88 90 76 66 71 76 69 65 62 73 73 74 78 73 76 79
76 65 60 63 63 65 67 87 89 91 94 94 83 65 76 64 74 72 78 83 91 90 93 95 96 93 90 79 86 93 86 81 75 76 72 70 73 63 75 76 80 73 80 77
75 67 63 66 68 66 80 92 93 92 90 91 86 65 48 62 83 83 80 83 88 95 96 97 97 92 93 94 83 88 84 85 87 78 64 63 66 74 72 74 78 74 77 77
74 66 70 66 66 70 95 99 96 90 93 97 98 88 90 92 88 84 84 88 92 93 93 96 93 84 86 98 93 72 76 71 60 69 66 65 68 71 75 72 73 72 72 72
73 66 68 67 67 93 97 85 93 91 90 98 98 98 92 89 87 95 96 92 97 93 93 97 93 92 90 97 95 64 70 75 80 77 68 75 73 70 69 70 70 68 67 65
71 69 68 67 69 80 93 96 86 89 98 100 99 98 99 92 98 98 96 99 97 98 94 97 97 94 95 99 84 75 69 59 68 66 68 70 79 74 74 72 68 69 69 63
68 69 70 90 93 94 96 79 84 95 97 99 100 100 100 95 98 98 98 96 98 96 98 96 93 94 99 78 65 61 67 73 71 75 73 72 80 77 75 71 71 70 68 61
69 80 84 99 96 78 84 98 100 100 100 99 99 97 99 95 92 99 96 99 97 100 97 97 99 97 77 66 66 70 76 80 85 95 90 94 89 90 79 75 70 67 65 61
89 95 94 92 80 97 98 100 100 99 100 99 98 94 96 93 94 98 97 99 100 100 97 96 99 96 70 72 78 77 80 80 80 81 82 84 84 83 84 78 70 67 66 67
86 89 89 95 98 98 100 99 100 100 99 96 99 98 95 95 92 96 97 99 100 99 89 96 96 90 86 85 83 78 77 77 78 77 79 80 86 82 81 74 68 65 66 70
93 98 96 97 99 99 99 97 99 100 99 100 100 99 99 93 92 97 95 96 98 93 98 90 96 92 88 86 84 81 74 76 76 83 80 81 78 79 72 67 62 60 58 53
95 97 96 98 100 98 97 99 99 99 100 99 99 99 98 95 98 95 92 91 90 98 98 91 97 97 95 87 82 82 81 79 79 91 84 89 90 86 79 69 61 59 62 62
97 97 98 98 94 99 99 100 100 100 99 100 100 100 95 100 99 94 97 97 96 88 85 98 99 98 95 92 84 84 85 84 81 78 89 80 89 88 94 93 89 80 84 83
97 98 99 91 98 98 98 98 100 99 98 100 100 100 100 100 97 98 95 89 87 95 99 99 98 94 94 94 88 89 86 83 80 78 75 75 75 84 92 94 92 86 74 66
96 98 94 97 99 98 93 82 84 78 99 100 100 99 90 98 100 98 92 94 98 99 96 99 95 94 95 93 92 92 89 86 84 87 81 80 75 68 68 70 71 78 77 73